TimeCST,TemperatureF,Dew PointF,Humidity,Sea Level PressureIn,VisibilityMPH,Wind Direction,Wind SpeedMPH,Gust SpeedMPH,PrecipitationIn,Events,Conditions,WindDirDegrees,DateUTC
12:53 AM,37.9,28.9,70,30.27,10.0,South,12.7,-,N/A,,Clear,190,2013-01-19 06:53:00
1:53 AM,37.9,28.0,68,30.27,10.0,South,11.5,-,N/A,,Clear,190,2013-01-19 07:53:00
2:53 AM,37.0,28.0,70,30.26,10.0,SSW,8.1,-,N/A,,Clear,210,2013-01-19 08:53:00
3:53 AM,36.0,28.0,73,30.26,10.0,SSW,8.1,-,N/A,,Clear,210,2013-01-19 09:53:00
4:53 AM,36.0,28.0,73,30.25,10.0,SSW,9.2,-,N/A,,Clear,200,2013-01-19 10:53:00
5:53 AM,36.0,28.0,73,30.24,10.0,SSW,10.4,-,N/A,,Clear,200,2013-01-19 11:53:00
6:53 AM,36.0,28.9,76,30.24,10.0,South,6.9,-,N/A,,Clear,190,2013-01-19 12:53:00
7:53 AM,37.0,30.0,76,30.24,10.0,Variable,3.5,-,N/A,,Clear,0,2013-01-19 13:53:00
8:53 AM,39.0,30.9,73,30.24,10.0,SSW,6.9,-,N/A,,Clear,200,2013-01-19 14:53:00
9:53 AM,42.1,32.0,67,30.24,10.0,SSW,11.5,-,N/A,,Clear,200,2013-01-19 15:53:00
10:53 AM,45.0,34.0,65,30.20,10.0,SSW,12.7,21.9,N/A,,Clear,210,2013-01-19 16:53:00
11:53 AM,48.9,37.0,64,30.15,10.0,SSW,11.5,19.6,N/A,,Clear,210,2013-01-19 17:53:00
12:53 PM,51.1,37.9,61,30.11,10.0,SSW,16.1,21.9,N/A,,Clear,210,2013-01-19 18:53:00
1:53 PM,53.1,39.9,61,30.08,10.0,South,19.6,25.3,N/A,,Clear,190,2013-01-19 19:53:00
2:53 PM,54.0,41.0,62,30.06,10.0,SSW,16.1,26.5,N/A,,Clear,210,2013-01-19 20:53:00
3:53 PM,54.0,39.9,59,30.05,10.0,SSW,13.8,24.2,N/A,,Clear,200,2013-01-19 21:53:00
4:53 PM,52.0,39.9,63,30.06,10.0,SSW,15.0,25.3,N/A,,Clear,200,2013-01-19 22:53:00
5:53 PM,50.0,39.9,68,30.07,10.0,SSW,15.0,-,N/A,,Clear,210,2013-01-19 23:53:00
6:53 PM,48.9,39.9,71,30.09,10.0,SW,9.2,-,N/A,,Clear,220,2013-01-20 00:53:00
7:53 PM,46.9,39.0,74,30.11,10.0,SW,9.2,-,N/A,,Clear,220,2013-01-20 01:53:00
8:53 PM,46.0,37.0,71,30.12,10.0,SW,9.2,-,N/A,,Clear,230,2013-01-20 02:53:00
9:53 PM,45.0,37.0,74,30.12,10.0,WSW,9.2,-,N/A,,Clear,240,2013-01-20 03:53:00
10:53 PM,44.1,36.0,73,30.13,10.0,WSW,8.1,-,N/A,,Clear,240,2013-01-20 04:53:00
11:53 PM,43.0,36.0,76,30.13,10.0,WSW,6.9,-,N/A,,Clear,250,2013-01-20 05:53:00